TimeCST,TemperatureF,Dew PointF,Humidity,Sea Level PressureIn,VisibilityMPH,Wind Direction,Wind SpeedMPH,Gust SpeedMPH,PrecipitationIn,Events,Conditions,WindDirDegrees,DateUTC
12:15 AM,46.4,41.0,81,30.09,7.0,SSW,5.8,-,N/A,,Overcast,210,2012-11-20 06:15:00
12:35 AM,46.4,42.8,87,30.08,5.0,SSW,4.6,-,N/A,,Light Drizzle,210,2012-11-20 06:35:00
12:55 AM,46.4,42.8,87,30.08,7.0,SSW,3.5,-,N/A,,Overcast,200,2012-11-20 06:55:00
1:15 AM,46.4,42.8,87,30.08,7.0,Calm,Calm,-,N/A,,Overcast,0,2012-11-20 07:15:00
1:35 AM,46.4,41.0,81,30.08,7.0,Calm,Calm,-,N/A,,Overcast,0,2012-11-20 07:35:00
1:55 AM,46.4,41.0,81,30.08,7.0,South,3.5,-,N/A,,Overcast,190,2012-11-20 07:55:00
2:15 AM,46.4,41.0,81,30.08,7.0,Calm,Calm,-,N/A,,Overcast,0,2012-11-20 08:15:00
2:35 AM,44.6,42.8,93,30.08,5.0,Calm,Calm,-,N/A,,Drizzle,0,2012-11-20 08:35:00
6:45 AM,46.4,42.8,87,30.09,4.0,West,4.6,-,N/A,,Overcast,270,2012-11-20 12:45:00
7:45 AM,46.4,42.8,87,30.11,2.5,Calm,Calm,-,N/A,,Overcast,0,2012-11-20 13:45:00
8:45 AM,46.4,44.6,93,30.10,3.0,Calm,Calm,-,N/A,,Overcast,0,2012-11-20 14:45:00
9:45 AM,48.2,44.6,87,30.09,4.0,NW,5.8,-,N/A,,Haze,320,2012-11-20 15:45:00
10:45 AM,51.8,44.6,76,30.10,5.0,NNW,4.6,-,N/A,,Haze,340,2012-11-20 16:45:00
11:45 AM,51.8,44.6,76,30.09,5.0,Calm,Calm,-,N/A,,Haze,0,2012-11-20 17:45:00
12:45 PM,51.8,44.6,76,30.09,5.0,Calm,Calm,-,N/A,,Haze,0,2012-11-20 18:45:00
1:45 PM,53.6,44.6,72,30.09,5.0,Calm,Calm,-,N/A,,Haze,0,2012-11-20 19:45:00
2:45 PM,53.6,42.8,67,30.09,5.0,Calm,Calm,-,N/A,,Haze,0,2012-11-20 20:45:00
4:45 PM,46.4,42.8,87,30.13,5.0,Calm,Calm,-,N/A,,Haze,0,2012-11-20 22:45:00
5:45 PM,42.8,41.0,93,30.14,3.0,Calm,Calm,-,N/A,,Clear,0,2012-11-20 23:45:00
6:45 PM,39.2,37.4,93,30.14,3.0,Calm,Calm,-,N/A,,Clear,0,2012-11-21 00:45:00
7:45 PM,39.2,37.4,93,30.16,2.0,Calm,Calm,-,N/A,,Clear,0,2012-11-21 01:45:00
8:15 PM,37.4,35.6,93,30.16,0.2,Calm,Calm,-,N/A,Fog,Fog,0,2012-11-21 02:15:00
8:35 PM,37.4,35.6,93,30.16,0.2,Calm,Calm,-,N/A,Fog,Fog,0,2012-11-21 02:35:00
8:45 PM,37.4,35.6,93,30.16,0.2,Calm,Calm,-,N/A,Fog,Fog,0,2012-11-21 02:45:00
8:55 PM,35.6,35.6,100,30.17,0.2,Calm,Calm,-,N/A,Fog,Fog,0,2012-11-21 02:55:00
9:15 PM,35.6,35.6,100,30.16,0.2,Calm,Calm,-,N/A,Fog,Fog,0,2012-11-21 03:15:00
9:35 PM,35.6,35.6,100,30.16,0.2,Calm,Calm,-,N/A,Fog,Fog,0,2012-11-21 03:35:00
9:55 PM,35.6,35.6,100,30.16,0.2,Calm,Calm,-,N/A,Fog,Fog,0,2012-11-21 03:55:00
10:15 PM,35.6,33.8,93,30.17,0.2,Calm,Calm,-,N/A,Fog,Fog,0,2012-11-21 04:15:00
10:35 PM,33.8,33.8,100,30.17,0.2,Calm,Calm,-,N/A,Fog,Fog,0,2012-11-21 04:35:00
10:55 PM,33.8,33.8,100,30.17,0.5,Calm,Calm,-,N/A,Fog,Fog,0,2012-11-21 04:55:00
11:15 PM,33.8,33.8,100,30.18,0.5,Calm,Calm,-,N/A,Fog,Fog,0,2012-11-21 05:15:00
11:35 PM,35.6,35.6,100,30.18,2.0,Calm,Calm,-,N/A,,Clear,0,2012-11-21 05:35:00
11:55 PM,33.8,32.0,93,30.17,0.8,South,3.5,-,N/A,,Mist,190,2012-11-21 05:55:00